This is the latest recevied weather packets stored in our database for station/object KD0ISH. If no packets are shown the sender has not sent any weather packets the latest 10 day(s).
| Time | Temp. | Humidity | Pressure | Rain* | Wind** | Luminosity | Snow |
|---|---|---|---|---|---|---|---|
| 1778110645 | 15° C | 46% | 1017.6 hPa | 0 mm | - | 51 W/m² | - |
| 1778110341 | 15° C | 48% | 1017.6 hPa | 0 mm | - | 91 W/m² | - |
| 1778110038 | 15° C | 47% | 1017.4 hPa | 0 mm | - | 88 W/m² | - |
| 1778109732 | 15.56° C | 46% | 1017.8 hPa | 0 mm | - | 92 W/m² | - |
| 1778109430 | 15.56° C | 47% | 1017.7 hPa | 0 mm | - | 237 W/m² | - |
| 1778109129 | 15.56° C | 49% | 1017.6 hPa | 0 mm | - | 212 W/m² | - |
| 1778108825 | 15.56° C | 48% | 1017.5 hPa | 0 mm | - | 131 W/m² | - |
| 1778108522 | 15° C | 48% | 1017.7 hPa | 0 mm | - | 219 W/m² | - |
| 1778108218 | 15° C | 47% | 1017.3 hPa | 0 mm | - | 184 W/m² | - |
| 1778107915 | 15.56° C | 47% | 1017.5 hPa | 0 mm | - | 107 W/m² | - |
| 1778107612 | 16.11° C | 46% | 1017.7 hPa | 0 mm | - | 116 W/m² | - |
| 1778107308 | 16.11° C | 46% | 1017.7 hPa | 0 mm | - | 284 W/m² | - |
| 1778107005 | 15.56° C | 50% | 1017.8 hPa | 0 mm | - | 180 W/m² | - |
| 1778106701 | 15.56° C | 48% | 1017.6 hPa | 0 mm | - | 364 W/m² | - |
| 1778106398 | 15.56° C | 47% | 1017.7 hPa | 0 mm | - | 113 W/m² | - |
| 1778106094 | 16.11° C | 46% | 1017.7 hPa | 0 mm | - | 353 W/m² | - |
| 1778105792 | 15.56° C | 46% | 1017.7 hPa | 0 mm | - | 363 W/m² | - |
| 1778105490 | 16.11° C | 46% | 1017.7 hPa | 0 mm | - | 360 W/m² | - |
| 1778105186 | 15.56° C | 47% | 1017.8 hPa | 0 mm | - | 390 W/m² | - |
| 1778104881 | 15.56° C | 47% | 1017.6 hPa | 0 mm | - | 463 W/m² | - |
| 1778104578 | 15.56° C | 47% | 1017.7 hPa | 0 mm | - | 467 W/m² | - |
| 1778104273 | 15.56° C | 46% | 1017.8 hPa | 0 mm | - | 174 W/m² | - |
| 1778103971 | 16.11° C | 45% | 1017.5 hPa | 0 mm | - | 444 W/m² | - |
| 1778103668 | 16.11° C | 47% | 1017.8 hPa | 0 mm | - | 443 W/m² | - |
| 1778103366 | 15.56° C | 45% | 1017.8 hPa | 0 mm | - | 451 W/m² | - |
* Rain latest hour (hover to see other rain measurements)
** Current wind speed in m/s (hover to see current wind gust speed)